Content
SEND FEEDBACK

Daily
Averages
Monthly
Summary
United States of America

UPI, GUAM


Home > North America > United States > Guam
Elevation: 16 meters     Latitude: 13 34N     Longitude: 144 55E

WEATHER
 
SELECT A DAY
Number of Records: 214,876;   Date Range: 1/1/95 - 11/24/14
 
SHARE

PRINT THIS DATA

[ ← Previous Day ]
WEATHER ALMANAC - 10 APRIL, 2013
[ Next Day → ]
[ °F ]   °C
Weather ElementAverageHighLow
Temperature29.7 °C32.8 °C (12:54 pm)26.7 °C (11:54 pm)
Dewpoint22.3 °C23.3 °C (1:54 am)21.1 °C (12:54 pm)
Humidity64.6 %79 % (2:54 am)50 % (12:54 pm)
Barometer1010.8 hPa1013.2 hPa (9:01 am)1008.5 hPa (3:54 pm)
Wind Speed21.1 km/h29.6 km/h (2:54 pm)
Wind Gust40.7 km/h (1:54 pm)
Weather ElementAverage
Visibility15.9 km
Wind DirectionENE (55.9 °)

Weather ElementTotal
Precipitation0.25 mm
Cooling Degree Days11.4 (Base 18.3)
Growing Degree Days19.8 (Base 10)
Averaged from 29 records on 10 April, 2013
WEATHER CONDITIONS BREAKOUT
WIND DIRECTION BREAKOUT
WEATHER BY HOUR - 10 APRIL, 2013
[ °F ]   °C
Local TimeTemperatureDewpointHumidityBarometerVisibilityWind DirectionWind SpeedGust SpeedPrecipitationEventsConditions
1:54 AM27.8 °C23.3 °C76 %1010.8 hPa16.1 kmENE (70°)14.8 km/hClear
2:54 AM27.2 °C23.3 °C79 %1010.5 hPa16.1 kmENE (60°)9.3 km/hClear
3:54 AM27.8 °C23.3 °C76 %1010.2 hPa16.1 kmENE (60°)14.8 km/hClear
4:54 AM27.8 °C23.3 °C76 %1010.5 hPa16.1 kmENE (70°)16.7 km/hScattered Clouds
5:54 AM27.2 °C23.3 °C79 %1011.2 hPa16.1 kmNE (50°)9.3 km/hScattered Clouds
6:54 AM27.8 °C23.3 °C76 %1011.5 hPa16.1 kmNE (40°)7.4 km/hScattered Clouds
7:54 AM29.4 °C23.3 °C69 %1012.2 hPa16.1 kmNE (50°)22.2 km/hScattered Clouds
8:54 AM30.6 °C22.2 °C61 %1012.2 hPa16.1 kmNE (50°)16.7 km/h33.3 km/hScattered Clouds
9:01 AM30 °C23 °C66 %1013.2 hPa16.1 kmNNE (30°)24.1 km/h31.5 km/hMostly Cloudy
9:18 AM31 °C23 °C62 %1013.2 hPa16.1 kmNE (50°)25.9 km/hScattered Clouds
9:54 AM31.1 °C22.2 °C59 %1012.2 hPa16.1 kmNNE (30°)22.2 km/hScattered Clouds
10:01 AM32 °C23 °C59 %1013.2 hPa16.1 kmNNE (30°)24.1 km/hMostly Cloudy
10:54 AM31.7 °C22.2 °C57 %1011.9 hPa16.1 kmNNE (30°)24.1 km/hMostly Cloudy
11:02 AM32 °C22 °C55 %1012.5 hPa16.1 kmENE (70°)24.1 km/hMostly Cloudy
11:54 AM32.2 °C21.7 °C54 %1011.2 hPa16.1 kmNE (50°)22.2 km/h37 km/hMostly Cloudy
12:54 PM32.8 °C21.1 °C50 %1010.2 hPa16.1 kmENE (60°)24.1 km/h35.2 km/hMostly Cloudy
1:54 PM32.2 °C21.7 °C54 %1009.1 hPa16.1 kmNE (50°)25.9 km/h40.7 km/hMostly Cloudy
2:54 PM31.1 °C21.1 °C55 %1008.8 hPa16.1 kmNE (50°)29.6 km/h38.9 km/hMostly Cloudy
3:54 PM31.1 °C21.1 °C55 %1008.5 hPa16.1 kmENE (70°)27.8 km/hScattered Clouds
4:29 PM31 °C22 °C58 %1009.1 hPa16.1 kmENE (70°)25.9 km/hMostly Cloudy
4:44 PM31 °C22 °C58 %1009.1 hPa16.1 kmNE (50°)27.8 km/hScattered Clouds
4:54 PM30.6 °C21.1 °C57 %1008.5 hPa16.1 kmENE (60°)25.9 km/hPartly Cloudy
5:54 PM29.4 °C21.1 °C61 %1009.1 hPa16.1 kmENE (70°)24.1 km/hClear
6:54 PM28.3 °C21.7 °C67 %1009.8 hPa16.1 kmENE (60°)25.9 km/hClear
7:54 PM28.3 °C21.1 °C65 %1010.8 hPa16.1 kmENE (70°)18.5 km/hPartly Cloudy
8:54 PM28.3 °C21.1 °C65 %1011.2 hPa16.1 kmENE (60°)14.8 km/hClear
9:54 PM28.3 °C22.2 °C69 %1011.5 hPa16.1 kmENE (60°)18.5 km/hScattered Clouds
10:54 PM27.2 °C23.3 °C79 %1011.9 hPa11.3 kmENE (70°)24.1 km/h33.3 km/h0.25 mmRainLight Rain
11:54 PM26.7 °C22.2 °C76 %1011.5 hPa16.1 kmEast (80°)18.5 km/h0 mmPartly Cloudy
Hourly data recorded from PGUM, located 0 kilometers away from Upi, Guam







STORIES FROM OUR PARTNERS